Torna al catalogo

STARLINK-4553

AttivoComunicazioniVLEO
NORAD 53577·PAYLOAD·🇺🇸 United States

Lanciato Aug 19, 2022 da Cape Canaveral Space Force Station

Loading…

Prossimi Passaggi (prossime 24 ore)

TLE

AggiornatoSource: CelesTrak SupGP

Epoca: Sep 14, 2026, 21:45 UTC

1 53577C 22101BC  26257.90673611  .00039827  00000+0  11770-2 0  2571
2 53577  53.1575 269.6197 0001248  84.5829  14.2831 15.34362304    17

Traccia STARLINK-4553 in tempo reale con AllMySat

Download on the App Store